Regional Weather Roundup
Issued by NWS

Home | Current Version | Previous Version | Graphics & Text | Print | Product List | Glossary Off
Versions: 1 2 3 4 5 6 7 8 9 10 11 12 13 14 15 16 17 18 19 20 21 22 23 24 25 26 27 28 29 30 31 32 33 34 35 36 37 38 39 40 41 42 43 44 45 46 47 48 49 50

000
ASUS45 KBOU 271107
RWRCO

WEATHER ROUNDUP FOR COLORADO
NATIONAL WEATHER SERVICE DENVER/BOULDER CO
500 AM MDT THU AUG 27 2015

NOTE: "FAIR" INDICATES FEW OR NO CLOUDS BELOW 12000 FEET WITH NO
SIGNIFICANT WEATHER AND/OR OBSTRUCTIONS TO VISIBILITY.

COZ001>005-013-030-031-271200-
...NORTHWEST COLORADO...

CITY           SKY/WX    TMP DP  RH WIND       PRES   REMARKS
CRAIG          CLOUDY    58  56  93 E5        30.29S
HAYDEN         NOT AVBL
MEEKER         CLOUDY    59  57  93 CALM      30.30S
MOUNT WERNER   NOT AVBL
STEAMBOAT SPGS CLOUDY    55  55  97 CALM      30.32F
WALDEN         CLOUDY    50  46  87 SE3       30.37F
$$

COZ006>008-011-271200-
...WEST CENTRAL VALLEYS...

CITY           SKY/WX    TMP DP  RH WIND       PRES   REMARKS
GRAND JUNCTION CLOUDY    61  61 100 SE8       30.24R
MONTROSE       CLOUDY    60  58  92 N3        30.32R
EAGLE          CLOUDY    57  57 100 CALM      30.34F
RIFLE          LGT RAIN  61  59  93 CALM      30.27F FOG
DELTA          RAIN      63  61  92 NE5       30.28R
NUCLA          CLOUDY    63  54  72 W5        30.35R
$$

COZ017>023-064>068-271200-
...SOUTHWEST COLORADO...

CITY           SKY/WX    TMP DP  RH WIND       PRES   REMARKS
DURANGO        CLOUDY    57  56  96 S3        30.39F
CORTEZ         CLOUDY    58  56  93 CALM      30.34R
PAGOSA SPRINGS CLOUDY    54  53  98 CALM      30.46S
TELLURIDE      CLOUDY    55  48  76 CALM      30.51S
WOLF CREEK PAS CLOUDY    37  37 100 SW18G29   30.69S FOG
$$

COZ009-010-012-014-032>034-037-058>063-271200-
...CENTRAL COLORADO...

CITY           SKY/WX    TMP DP  RH WIND       PRES   REMARKS
ASPEN          LGT RAIN  54  52  93 CALM      30.38F
BUENA VISTA    MOCLDY    50  46  84 CALM      30.38S
COPPER MTN     CLOUDY    48  39  71 SW6       30.63S
BERTHOUD PASS  HAZE      37  27  65 NW23G36   30.64S VSB 1/2
COTTONWOOD PAS MOCLDY    54  43  66 CALM      30.48F
GUNNISON       NOT AVBL
KREMMLING      RAIN      54  48  82 E3        30.37S
LEADVILLE      CLOUDY    50  44  80 N5        30.48F
MONARCH PASS   FOG       43  41  93 SW25G33   30.71F VSB<1/4
SALIDA         MOCLDY    61  49  66 W9        30.42F
SUNLIGHT       RAIN      50  48  93 CALM      30.58S
WILKERSON PASS DRZL/FOG  43  41  93 SW12G21   30.57R VSB 1/2
$$

COZ069>075-271200-
...SAN LUIS VALLEY/SANGRE DE CRISTO MOUNTAINS...

CITY           SKY/WX    TMP DP  RH WIND       PRES   REMARKS
ALAMOSA        CLOUDY    52  49  89 S3        30.40S
LA VETA PASS   MOCLDY    45  41  87 S18       30.48F
SAGUACHE       CLOUDY    52  50  93 CALM      30.43S
$$

COZ035-036-038>040-271200-
...NORTHERN COLORADO FRONT RANGE...

CITY           SKY/WX    TMP DP  RH WIND       PRES   REMARKS
DENVER INTL AP MOCLDY    57  44  62 SE8       30.13R
DMNS CITY PARK   N/A     66  45  46 SE9       30.12S
AURORA         PTCLDY    63  45  51 S8        30.15R
FRONT RANGE AP CLEAR     57  43  58 S6        30.15
ERIE MUNI ARPT MOCLDY    59  47  64 CALM      30.10S
BOULDER MUN AP PTCLDY    64  48  55 CALM      30.11R
CENTENNIAL     PTCLDY    62  45  53 S6        30.16S
BROOMFIELD     PTCLDY    70  43  37 W3        30.14S
FORT COLLINS   MOCLDY    64  50  59 SE6       30.10S
LONGMONT       MOCLDY    63  53  69 CALM      30.11S
$$

COZ041-046-047-076>085-087-088-271200-
...PIKES PEAK/PALMER DIVIDE AND SOUTHERN FOOTHILLS...

CITY           SKY/WX    TMP DP  RH WIND       PRES   REMARKS
COLO. SPRINGS  CLOUDY    65  46  50 N6        30.20R
A. F. ACADEMY  CLOUDY    68  45  44 N7        30.22R
ELLICOTT       CLOUDY   N/A N/A N/A NE5       30.18S
FALCON         CLOUDY    66  44  44 NW7       30.25S
FORT CARSON    NOT AVBL
LIMON          PTCLDY    64  46  52 W12       30.11R
MONUMENT HILL  PTCLDY    59  43  55 W9        30.26S
TRINIDAD       MOCLDY    70  48  45 SW10      30.17F
$$

COZ042>045-048>051-090-091-271200-
...NORTHEAST COLORADO...

CITY           SKY/WX    TMP DP  RH WIND       PRES   REMARKS
GREELEY ARPT   MOCLDY    64  52  63 SW7       30.10R
AKRON          MOCLDY    60  46  59 W5        30.02F
BURLINGTON     CLOUDY    68  51  54 S9        30.04F
WRAY           PTCLDY    71  50  46 E5        29.98F
STERLING       MOCLDY    63  48  59 N7        29.99F
HOLYOKE        PTCLDY    64  50  59 W7        29.98S
FORT MORGAN    MOCLDY    63  46  53 W6        30.06R
$$

COZ086-089-092>099-271200-
...SOUTHEAST COLORADO...

CITY           SKY/WX    TMP DP  RH WIND       PRES   REMARKS
PUEBLO         MOCLDY    66  51  58 N6        30.08F
LA JUNTA       CLOUDY    73  50  44 SW10      30.07S
LAMAR          MOCLDY    72  51  47 S10       30.02S
SPRINGFIELD      N/A     69  51  52 SW9       30.11S
$$




USA.gov is the U.S. government's official web portal to all federal, state and local government web resources and services.